,,PA_Meas_PMT16A,,PR_Meas_QMR101_102,,RH_Meas_QMH101,,SR_Meas_QMS101,,TA_Meas_QMH101,,GenWind,,GenWind,
time,status,PA,status,PR,status,RH,status,SR,status,TA,status,DirAvg,status,SpdAvg,
2013-04-30, 00:00:04,VALID,917.558,VALID,0,VALID,95.3537,VALID,0,VALID,21.0291,VALID,87,VALID,0,
2013-04-30, 00:01:04,VALID,917.558,VALID,0,VALID,95.3842,VALID,0,VALID,21.0291,VALID,87,VALID,0,
2013-04-30, 00:02:04,VALID,917.57,VALID,0,VALID,95.4833,VALID,0,VALID,21.0096,VALID,88,VALID,0,
2013-04-30, 00:03:04,VALID,917.551,VALID,0,VALID,95.5214,VALID,0,VALID,21.0096,VALID,87,VALID,0,
2013-04-30, 00:04:04,VALID,917.547,VALID,0,VALID,95.6053,VALID,0,VALID,21.0096,VALID,87,VALID,0,
2013-04-30, 00:05:04,VALID,917.558,VALID,0,VALID,95.6129,VALID,0.107441,VALID,21.0096,VALID,87,VALID,0,
2013-04-30, 00:06:04,VALID,917.572,VALID,0,VALID,95.6357,VALID,0,VALID,21.0096,VALID,87,VALID,0,
2013-04-30, 00:07:04,VALID,917.542,VALID,0,VALID,95.7349,VALID,0.107441,VALID,21.0291,VALID,87,VALID,0,
2013-04-30, 00:08:04,VALID,917.512,VALID,0,VALID,95.7349,VALID,0,VALID,21.0291,VALID,87,VALID,0,
2013-04-30, 00:09:04,VALID,917.535,VALID,0,VALID,95.7654,VALID,0,VALID,21.0291,VALID,87,VALID,0,
2013-04-30, 00:10:04,VALID,917.509,VALID,0,VALID,95.773,VALID,0,VALID,21.0291,VALID,87,VALID,0,
2013-04-30, 00:11:04,VALID,917.525,VALID,0,VALID,95.834,VALID,0,VALID,21.0291,VALID,87,VALID,0,
2013-04-30, 00:12:04,VALID,917.489,VALID,0,VALID,95.8797,VALID,0,VALID,21.0486,VALID,87,VALID,0,
2013-04-30, 00:13:04,VALID,917.483,VALID,0,VALID,95.9102,VALID,0,VALID,21.0486,VALID,87,VALID,0,
2013-04-30, 00:14:04,VALID,917.481,VALID,0,VALID,95.9026,VALID,0,VALID,21.0291,VALID,87,VALID,0,
2013-04-30, 00:15:04,VALID,917.448,VALID,0,VALID,95.9178,VALID,0,VALID,21.0291,VALID,87,VALID,0,
2013-04-30, 00:16:04,VALID,917.471,VALID,0,VALID,95.9559,VALID,0,VALID,21.0291,VALID,87,VALID,0,
2013-04-30, 00:17:04,VALID,917.451,VALID,0,VALID,96.055,VALID,0,VALID,21.0486,VALID,87,VALID,0,
2013-04-30, 00:18:04,VALID,917.427,VALID,0,VALID,96.055,VALID,0,VALID,21.0486,VALID,87,VALID,0,
2013-04-30, 00:19:04,VALID,917.46,VALID,0,VALID,96.1084,VALID,0,VALID,21.0486,VALID,87,VALID,0,
2013-04-30, 00:20:04,VALID,917.441,VALID,0,VALID,96.1541,VALID,0.107441,VALID,21.0486,VALID,87,VALID,0,
2013-04-30, 00:21:04,VALID,917.425,VALID,0,VALID,96.1541,VALID,0,VALID,21.047,VALID,87,VALID,0,
2013-04-30, 00:22:04,VALID,917.456,VALID,0,VALID,96.2075,VALID,0.107441,VALID,21.0275,VALID,87,VALID,0,
2013-04-30, 00:23:04,VALID,917.453,VALID,0,VALID,96.2151,VALID,0,VALID,21.0291,VALID,87,VALID,0,
2013-04-30, 00:24:04,VALID,917.446,VALID,0,VALID,96.2685,VALID,0,VALID,21.0486,VALID,87,VALID,0,
2013-04-30, 00:25:04,VALID,917.417,VALID,0,VALID,96.299,VALID,0,VALID,21.0681,VALID,87,VALID,0,
2013-04-30, 00:26:04,VALID,917.41,VALID,0,VALID,96.3295,VALID,0,VALID,21.0876,VALID,87,VALID,0,
2013-04-30, 00:27:04,VALID,917.382,VALID,0,VALID,96.3447,VALID,0,VALID,21.0876,VALID,87,VALID,0,
2013-04-30, 00:28:04,VALID,917.374,VALID,0,VALID,96.3676,VALID,0,VALID,21.0681,VALID,87,VALID,0,
2013-04-30, 00:29:04,VALID,917.371,VALID,0,VALID,96.36,VALID,0,VALID,21.0486,VALID,87,VALID,0,
2013-04-30, 00:30:04,VALID,917.379,VALID,0,VALID,96.3905,VALID,0,VALID,21.0486,VALID,87,VALID,0,
2013-04-30, 00:31:04,VALID,917.331,VALID,0,VALID,96.4057,VALID,0,VALID,21.0486,VALID,87,VALID,0,
2013-04-30, 00:32:04,VALID,917.316,VALID,0,VALID,96.421,VALID,0,VALID,21.0486,VALID,87,VALID,0,
2013-04-30, 00:33:04,VALID,917.282,VALID,0,VALID,96.4515,VALID,0,VALID,21.0681,VALID,87,VALID,0,
2013-04-30, 00:34:04,VALID,917.268,VALID,0,VALID,96.4667,VALID,0,VALID,21.0681,VALID,88,VALID,0,
2013-04-30, 00:35:04,VALID,917.27,VALID,0,VALID,96.4743,VALID,0,VALID,21.0681,VALID,87,VALID,0,
2013-04-30, 00:36:04,VALID,917.27,VALID,0,VALID,96.4819,VALID,0,VALID,21.0486,VALID,88,VALID,0,
2013-04-30, 00:37:04,VALID,917.235,VALID,0,VALID,96.5124,VALID,0,VALID,21.0486,VALID,87,VALID,0,
2013-04-30, 00:38:04,VALID,917.207,VALID,0,VALID,96.5277,VALID,0,VALID,21.0486,VALID,87,VALID,0,
2013-04-30, 00:39:04,VALID,917.198,VALID,0,VALID,96.5506,VALID,0,VALID,21.0681,VALID,87,VALID,0,
2013-04-30, 00:40:04,VALID,917.196,VALID,0,VALID,96.5582,VALID,0,VALID,21.0876,VALID,87,VALID,0,
2013-04-30, 00:41:05,VALID,917.162,VALID,0,VALID,96.5734,VALID,0,VALID,21.0876,VALID,87,VALID,0,
2013-04-30, 00:42:05,VALID,917.174,VALID,0,VALID,96.5429,VALID,0,VALID,21.0291,VALID,87,VALID,0,
2013-04-30, 00:43:05,VALID,917.122,VALID,0,VALID,96.5734,VALID,0,VALID,21.0291,VALID,87,VALID,0,
2013-04-30, 00:44:05,VALID,917.103,VALID,0,VALID,96.5734,VALID,0,VALID,21.0096,VALID,87,VALID,0,
2013-04-30, 00:45:05,VALID,917.1,VALID,0,VALID,96.5887,VALID,0,VALID,21.0096,VALID,87,VALID,0,
2013-04-30, 00:46:05,VALID,917.106,VALID,0,VALID,96.5887,VALID,0,VALID,21.0096,VALID,87,VALID,0,
2013-04-30, 00:47:05,VALID,917.027,VALID,0,VALID,96.6115,VALID,0,VALID,21.0096,VALID,87,VALID,0,
2013-04-30, 00:48:05,VALID,917.03,VALID,0,VALID,96.6268,VALID,0,VALID,20.9901,VALID,88,VALID,0,
2013-04-30, 00:49:05,VALID,916.965,VALID,0,VALID,96.6268,VALID,0,VALID,20.9901,VALID,87,VALID,0,
2013-04-30, 00:50:05,VALID,916.95,VALID,0,VALID,96.6344,VALID,0,VALID,20.9901,VALID,87,VALID,0,
2013-04-30, 00:51:05,VALID,916.923,VALID,0,VALID,96.6573,VALID,0,VALID,20.9901,VALID,355,VALID,0,
2013-04-30, 00:52:05,VALID,916.884,VALID,0,VALID,96.6649,VALID,0.107441,VALID,20.9901,VALID,355,VALID,0,
2013-04-30, 00:53:05,VALID,916.913,VALID,0.2,VALID,96.6649,VALID,0.107441,VALID,20.969,VALID,355,VALID,0,
2013-04-30, 00:54:05,VALID,916.904,VALID,0,VALID,96.6878,VALID,0,VALID,20.9495,VALID,355,VALID,0,
2013-04-30, 00:55:05,VALID,916.884,VALID,0,VALID,96.6878,VALID,0,VALID,20.969,VALID,355,VALID,0,
2013-04-30, 00:56:05,VALID,916.911,VALID,0,VALID,96.7259,VALID,0.107441,VALID,20.9885,VALID,355,VALID,0,
2013-04-30, 00:57:05,VALID,916.866,VALID,0,VALID,96.7107,VALID,0.107441,VALID,20.969,VALID,355,VALID,0,
2013-04-30, 00:58:05,VALID,916.883,VALID,0,VALID,96.7183,VALID,0.107441,VALID,20.9885,VALID,355,VALID,0,
2013-04-30, 00:59:05,VALID,916.871,VALID,0,VALID,96.7335,VALID,0.107441,VALID,21.0096,VALID,355,VALID,0,
2013-04-30, 01:00:05,VALID,916.856,VALID,0,VALID,96.7411,VALID,0.107441,VALID,20.9885,VALID,355,VALID,0,
2013-04-30, 01:01:05,VALID,916.827,VALID,0,VALID,96.764,VALID,0.107441,VALID,21.0291,VALID,355,VALID,0,
2013-04-30, 01:02:05,VALID,916.796,VALID,0,VALID,96.764,VALID,0,VALID,20.9885,VALID,355,VALID,0,
2013-04-30, 01:03:05,VALID,916.81,VALID,0,VALID,96.764,VALID,0.107441,VALID,20.9885,VALID,355,VALID,0,
2013-04-30, 01:04:05,VALID,916.806,VALID,0,VALID,96.764,VALID,0.107441,VALID,20.9885,VALID,355,VALID,0,
2013-04-30, 01:05:05,VALID,916.819,VALID,0,VALID,96.7564,VALID,0,VALID,20.969,VALID,355,VALID,0,
2013-04-30, 01:06:05,VALID,916.798,VALID,0,VALID,96.7716,VALID,0,VALID,20.9706,VALID,355,VALID,0,
2013-04-30, 01:07:05,VALID,916.853,VALID,0,VALID,96.764,VALID,0,VALID,20.9527,VALID,355,VALID,0,
2013-04-30, 01:08:05,VALID,916.851,VALID,0,VALID,96.7793,VALID,0,VALID,20.9511,VALID,355,VALID,0,
2013-04-30, 01:09:05,VALID,916.874,VALID,0,VALID,96.7716,VALID,0,VALID,20.9316,VALID,355,VALID,0,
2013-04-30, 01:10:05,VALID,916.847,VALID,0,VALID,96.7793,VALID,0,VALID,20.912,VALID,355,VALID,0,
2013-04-30, 01:11:05,VALID,916.835,VALID,0,VALID,96.7869,VALID,0,VALID,20.8925,VALID,355,VALID,0,
2013-04-30, 01:12:05,VALID,916.815,VALID,0,VALID,96.7869,VALID,0,VALID,20.873,VALID,355,VALID,0,
2013-04-30, 01:13:05,VALID,916.798,VALID,0,VALID,96.7869,VALID,0,VALID,20.8941,VALID,355,VALID,0,
2013-04-30, 01:14:05,VALID,916.796,VALID,0,VALID,96.8098,VALID,0,VALID,20.873,VALID,355,VALID,0,
2013-04-30, 01:15:05,VALID,916.776,VALID,0,VALID,96.825,VALID,0,VALID,20.8925,VALID,355,VALID,0,
2013-04-30, 01:16:05,VALID,916.779,VALID,0,VALID,96.8098,VALID,0,VALID,20.8925,VALID,355,VALID,0,
2013-04-30, 01:17:05,VALID,916.741,VALID,0,VALID,96.8174,VALID,0,VALID,20.8925,VALID,355,VALID,0,
2013-04-30, 01:18:05,VALID,916.724,VALID,0,VALID,96.8174,VALID,0,VALID,20.8925,VALID,355,VALID,0,
2013-04-30, 01:19:05,VALID,916.737,VALID,0,VALID,96.825,VALID,0,VALID,20.8535,VALID,355,VALID,0,
2013-04-30, 01:20:05,VALID,916.722,VALID,0,VALID,96.8098,VALID,0,VALID,20.834,VALID,355,VALID,0,
2013-04-30, 01:21:05,VALID,916.735,VALID,0,VALID,96.825,VALID,0,VALID,20.834,VALID,355,VALID,0,
2013-04-30, 01:22:05,VALID,916.709,VALID,0,VALID,96.8326,VALID,0,VALID,20.8356,VALID,355,VALID,0,
2013-04-30, 01:23:05,VALID,916.713,VALID,0,VALID,96.8326,VALID,0,VALID,20.8145,VALID,355,VALID,0,
2013-04-30, 01:24:05,VALID,916.674,VALID,0,VALID,96.8403,VALID,0,VALID,20.8161,VALID,355,VALID,0,
2013-04-30, 01:25:05,VALID,916.657,VALID,0,VALID,96.8326,VALID,0,VALID,20.7771,VALID,355,VALID,0,
2013-04-30, 01:26:05,VALID,916.633,VALID,0,VALID,96.8403,VALID,0,VALID,20.756,VALID,355,VALID,0,
2013-04-30, 01:27:05,VALID,916.626,VALID,0,VALID,96.8707,VALID,0,VALID,20.7771,VALID,355,VALID,0,
2013-04-30, 01:28:05,VALID,916.599,VALID,0,VALID,96.8403,VALID,0,VALID,20.7365,VALID,355,VALID,0,
2013-04-30, 01:29:05,VALID,916.632,VALID,0,VALID,96.8631,VALID,0,VALID,20.717,VALID,355,VALID,0,
2013-04-30, 01:30:05,VALID,916.62,VALID,0,VALID,96.8555,VALID,0,VALID,20.7185,VALID,355,VALID,0,
2013-04-30, 01:31:05,VALID,916.614,VALID,0,VALID,96.8631,VALID,0,VALID,20.7185,VALID,355,VALID,0,
2013-04-30, 01:32:05,VALID,916.602,VALID,0,VALID,96.886,VALID,0,VALID,20.717,VALID,355,VALID,0,
2013-04-30, 01:33:05,VALID,916.58,VALID,0,VALID,96.8707,VALID,0,VALID,20.717,VALID,355,VALID,0,
2013-04-30, 01:34:05,VALID,916.585,VALID,0,VALID,96.8555,VALID,0,VALID,20.6975,VALID,355,VALID,0,
2013-04-30, 01:35:05,VALID,916.559,VALID,0,VALID,96.8784,VALID,0,VALID,20.717,VALID,355,VALID,0,
2013-04-30, 01:36:05,VALID,916.549,VALID,0,VALID,96.886,VALID,0,VALID,20.6975,VALID,355,VALID,0,
2013-04-30, 01:37:05,VALID,916.542,VALID,0,VALID,96.9012,VALID,0,VALID,20.6975,VALID,355,VALID,0,
2013-04-30, 01:38:05,VALID,916.546,VALID,0,VALID,96.9012,VALID,0,VALID,20.6975,VALID,355,VALID,0,
2013-04-30, 01:39:05,VALID,916.545,VALID,0,VALID,96.886,VALID,0,VALID,20.6975,VALID,355,VALID,0,
2013-04-30, 01:40:05,VALID,916.527,VALID,0,VALID,96.8784,VALID,0,VALID,20.6975,VALID,355,VALID,0,
2013-04-30, 01:41:05,VALID,916.515,VALID,0,VALID,96.886,VALID,0,VALID,20.678,VALID,355,VALID,0,
2013-04-30, 01:42:05,VALID,916.525,VALID,0,VALID,96.886,VALID,0,VALID,20.6585,VALID,355,VALID,0,
2013-04-30, 01:43:05,VALID,916.536,VALID,0,VALID,96.8936,VALID,0,VALID,20.639,VALID,355,VALID,0,
2013-04-30, 01:44:05,VALID,916.512,VALID,0,VALID,96.9012,VALID,0,VALID,20.639,VALID,355,VALID,0,
2013-04-30, 01:45:05,VALID,916.528,VALID,0,VALID,96.9089,VALID,0,VALID,20.621,VALID,355,VALID,0,
2013-04-30, 01:46:05,VALID,916.517,VALID,0,VALID,96.9012,VALID,0,VALID,20.5999,VALID,355,VALID,0,
2013-04-30, 01:47:05,VALID,916.5,VALID,0,VALID,96.8936,VALID,0,VALID,20.5804,VALID,355,VALID,0,
2013-04-30, 01:48:05,VALID,916.496,VALID,0,VALID,96.9089,VALID,0,VALID,20.582,VALID,355,VALID,0,
2013-04-30, 01:49:05,VALID,916.482,VALID,0,VALID,96.9089,VALID,0,VALID,20.5414,VALID,355,VALID,0,
2013-04-30, 01:50:05,VALID,916.444,VALID,0,VALID,96.8936,VALID,0,VALID,20.4829,VALID,32,VALID,0,
2013-04-30, 01:51:05,VALID,916.422,VALID,0,VALID,96.8707,VALID,0,VALID,20.4634,VALID,32,VALID,0,
2013-04-30, 01:52:05,VALID,916.403,VALID,0,VALID,96.8936,VALID,0,VALID,20.4244,VALID,32,VALID,0,
2013-04-30, 01:53:05,VALID,916.363,VALID,0,VALID,96.8936,VALID,0,VALID,20.4454,VALID,32,VALID,0,
2013-04-30, 01:54:05,VALID,916.315,VALID,0,VALID,96.9012,VALID,0,VALID,20.4244,VALID,63,VALID,0,
2013-04-30, 01:55:05,VALID,916.28,VALID,0,VALID,96.8936,VALID,0,VALID,20.4259,VALID,112,VALID,0,
2013-04-30, 01:56:05,VALID,916.208,VALID,0,VALID,96.9089,VALID,0,VALID,20.4454,VALID,125,VALID,0,
2013-04-30, 01:57:05,VALID,916.177,VALID,0,VALID,96.9089,VALID,0,VALID,20.4259,VALID,131,VALID,0,
2013-04-30, 01:58:05,VALID,916.159,VALID,0,VALID,96.9012,VALID,0,VALID,20.4244,VALID,134,VALID,0,
2013-04-30, 01:59:05,VALID,916.114,VALID,0,VALID,96.9089,VALID,0,VALID,20.4259,VALID,133,VALID,0,
2013-04-30, 02:00:05,VALID,916.127,VALID,0,VALID,96.9012,VALID,0,VALID,20.3854,VALID,133,VALID,0,
2013-04-30, 02:01:05,VALID,916.124,VALID,0,VALID,96.9012,VALID,0,VALID,20.4064,VALID,133,VALID,0,
2013-04-30, 02:02:05,VALID,916.109,VALID,0,VALID,96.8936,VALID,0,VALID,20.3869,VALID,133,VALID,0,
2013-04-30, 02:03:05,VALID,916.098,VALID,0,VALID,96.8936,VALID,0,VALID,20.3674,VALID,133,VALID,0,
2013-04-30, 02:04:05,VALID,916.089,VALID,0,VALID,96.9012,VALID,0,VALID,20.3464,VALID,150,VALID,0,
2013-04-30, 02:05:05,VALID,916.089,VALID,0,VALID,96.8936,VALID,0,VALID,20.3869,VALID,150,VALID,0,
2013-04-30, 02:06:05,VALID,916.081,VALID,0,VALID,96.886,VALID,0,VALID,20.3659,VALID,150,VALID,0,
2013-04-30, 02:07:05,VALID,916.059,VALID,0,VALID,96.886,VALID,0,VALID,20.3659,VALID,150,VALID,0,
2013-04-30, 02:08:05,VALID,916.052,VALID,0,VALID,96.9089,VALID,0,VALID,20.3869,VALID,150,VALID,0,
2013-04-30, 02:09:05,VALID,916.041,VALID,0,VALID,96.9241,VALID,0,VALID,20.4064,VALID,160,VALID,0,
2013-04-30, 02:10:05,VALID,916.052,VALID,0,VALID,96.9317,VALID,0,VALID,20.4259,VALID,169,VALID,0,
2013-04-30, 02:11:05,VALID,916.054,VALID,0,VALID,96.9317,VALID,0,VALID,20.3854,VALID,172,VALID,0,
2013-04-30, 02:12:05,VALID,916.052,VALID,0,VALID,96.947,VALID,0,VALID,20.4259,VALID,168,VALID,0,
2013-04-30, 02:13:05,VALID,916.032,VALID,0,VALID,96.947,VALID,0,VALID,20.4049,VALID,164,VALID,0,
2013-04-30, 02:14:05,VALID,916.046,VALID,0,VALID,96.9546,VALID,0,VALID,20.3854,VALID,173,VALID,0,
2013-04-30, 02:15:05,VALID,916.028,VALID,0,VALID,96.9546,VALID,0,VALID,20.3869,VALID,178,VALID,0,
2013-04-30, 02:16:05,VALID,916.012,VALID,0,VALID,96.9241,VALID,0,VALID,20.3869,VALID,170,VALID,0,
2013-04-30, 02:17:05,VALID,915.999,VALID,0,VALID,96.947,VALID,0,VALID,20.3674,VALID,173,VALID,0,
2013-04-30, 02:18:05,VALID,915.98,VALID,0,VALID,96.9698,VALID,0,VALID,20.3674,VALID,173,VALID,0,
2013-04-30, 02:19:05,VALID,915.984,VALID,0,VALID,96.9622,VALID,0,VALID,20.3674,VALID,177,VALID,0,
2013-04-30, 02:20:05,VALID,915.973,VALID,0,VALID,96.9775,VALID,0,VALID,20.3479,VALID,161,VALID,0,
2013-04-30, 02:21:05,VALID,915.947,VALID,0,VALID,97.0003,VALID,0,VALID,20.3284,VALID,167,VALID,0,
2013-04-30, 02:22:05,VALID,915.942,VALID,0,VALID,96.9546,VALID,0,VALID,20.3089,VALID,150,VALID,0,
2013-04-30, 02:23:05,VALID,915.94,VALID,0,VALID,97.0003,VALID,0,VALID,20.3089,VALID,165,VALID,0,
2013-04-30, 02:24:05,VALID,915.946,VALID,0,VALID,97.008,VALID,0,VALID,20.3089,VALID,165,VALID,0,
2013-04-30, 02:25:05,VALID,915.929,VALID,0,VALID,96.9775,VALID,0,VALID,20.2489,VALID,164,VALID,0,
2013-04-30, 02:26:05,VALID,915.917,VALID,0,VALID,96.9927,VALID,0,VALID,20.2699,VALID,163,VALID,0,
2013-04-30, 02:27:05,VALID,915.898,VALID,0,VALID,96.9927,VALID,0,VALID,20.2504,VALID,163,VALID,0,
2013-04-30, 02:28:05,VALID,915.899,VALID,0,VALID,97.0156,VALID,0.107441,VALID,20.2684,VALID,163,VALID,0,
2013-04-30, 02:30:04,VALID,915.889,VALID,0,VALID,97.0003,VALID,0,VALID,20.2489,VALID,163,VALID,0,
2013-04-30, 02:31:04,VALID,915.873,VALID,0,VALID,97.0308,VALID,0,VALID,20.2489,VALID,163,VALID,0,
2013-04-30, 02:32:04,VALID,915.874,VALID,0,VALID,97.008,VALID,0,VALID,20.2309,VALID,163,VALID,0,
2013-04-30, 02:33:04,VALID,915.86,VALID,0,VALID,97.0003,VALID,0,VALID,20.1529,VALID,163,VALID,0,
2013-04-30, 02:34:04,VALID,915.857,VALID,0,VALID,97.0232,VALID,0,VALID,20.1334,VALID,156,VALID,0,
2013-04-30, 02:35:04,VALID,915.859,VALID,0,VALID,97.0156,VALID,0,VALID,20.1139,VALID,136,VALID,0,
2013-04-30, 02:36:04,VALID,915.867,VALID,0,VALID,97.0232,VALID,0,VALID,20.1349,VALID,136,VALID,0,
2013-04-30, 02:37:04,VALID,915.861,VALID,0,VALID,97.008,VALID,0,VALID,20.0749,VALID,136,VALID,0,
2013-04-30, 02:38:04,VALID,915.868,VALID,0,VALID,97.0232,VALID,0,VALID,20.0374,VALID,136,VALID,0,
2013-04-30, 02:39:04,VALID,915.861,VALID,0,VALID,97.0232,VALID,0,VALID,19.9968,VALID,114,VALID,0,
2013-04-30, 02:40:04,VALID,915.867,VALID,0,VALID,97.0308,VALID,0,VALID,19.9968,VALID,114,VALID,0,
2013-04-30, 02:41:04,VALID,915.864,VALID,0,VALID,97.0385,VALID,0,VALID,20.0163,VALID,115,VALID,0,
2013-04-30, 02:42:04,VALID,915.852,VALID,0,VALID,97.0308,VALID,0,VALID,19.9968,VALID,115,VALID,0,
2013-04-30, 02:43:04,VALID,915.875,VALID,0,VALID,97.0461,VALID,0,VALID,20.0163,VALID,114,VALID,0,
2013-04-30, 02:44:04,VALID,915.885,VALID,0,VALID,97.0537,VALID,0,VALID,20.0358,VALID,114,VALID,0,
2013-04-30, 02:45:04,VALID,915.901,VALID,0,VALID,97.0461,VALID,0,VALID,20.0358,VALID,115,VALID,0,
2013-04-30, 02:46:04,VALID,915.894,VALID,0,VALID,97.0766,VALID,0,VALID,20.0358,VALID,117,VALID,0,
2013-04-30, 02:47:04,VALID,915.889,VALID,0,VALID,97.069,VALID,0,VALID,20.0553,VALID,122,VALID,0,
2013-04-30, 02:48:04,VALID,915.884,VALID,0,VALID,97.0766,VALID,0,VALID,20.0358,VALID,122,VALID,0,
2013-04-30, 02:49:04,VALID,915.895,VALID,0,VALID,97.0918,VALID,0,VALID,20.0569,VALID,122,VALID,0,
2013-04-30, 02:50:04,VALID,915.915,VALID,0,VALID,97.0766,VALID,0,VALID,20.0553,VALID,122,VALID,0,
2013-04-30, 02:51:04,VALID,915.889,VALID,0,VALID,97.0994,VALID,0,VALID,20.0553,VALID,122,VALID,0,
2013-04-30, 02:52:04,VALID,915.892,VALID,0,VALID,97.0766,VALID,0,VALID,20.0749,VALID,122,VALID,0,
2013-04-30, 02:53:04,VALID,915.862,VALID,0,VALID,97.0994,VALID,0,VALID,20.0553,VALID,116,VALID,0,
2013-04-30, 02:54:04,VALID,915.889,VALID,0,VALID,97.0994,VALID,0,VALID,20.0538,VALID,116,VALID,0,
2013-04-30, 02:55:04,VALID,915.878,VALID,0,VALID,97.1147,VALID,0,VALID,20.0553,VALID,116,VALID,0,
2013-04-30, 02:56:04,VALID,915.899,VALID,0,VALID,97.1071,VALID,0,VALID,20.0749,VALID,116,VALID,0,
2013-04-30, 02:57:04,VALID,915.903,VALID,0,VALID,97.1071,VALID,0,VALID,20.0749,VALID,115,VALID,0,
2013-04-30, 02:58:04,VALID,915.918,VALID,0,VALID,97.0842,VALID,0,VALID,20.0944,VALID,68,VALID,0,
2013-04-30, 02:59:04,VALID,915.936,VALID,0,VALID,97.1223,VALID,0,VALID,20.1139,VALID,68,VALID,0,
2013-04-30, 03:00:04,VALID,915.946,VALID,0,VALID,97.1376,VALID,0,VALID,20.1154,VALID,68,VALID,0,
2013-04-30, 03:01:04,VALID,915.941,VALID,0,VALID,97.1147,VALID,0,VALID,20.1139,VALID,84,VALID,0,
2013-04-30, 03:02:04,VALID,915.91,VALID,0,VALID,97.1223,VALID,0,VALID,20.0928,VALID,77,VALID,0,
2013-04-30, 03:03:04,VALID,915.893,VALID,0,VALID,97.1299,VALID,0,VALID,20.1139,VALID,78,VALID,0,
2013-04-30, 03:04:04,VALID,915.889,VALID,0,VALID,97.1452,VALID,0,VALID,20.1334,VALID,42,VALID,0,
2013-04-30, 03:05:04,VALID,915.868,VALID,0,VALID,97.1452,VALID,0,VALID,20.1123,VALID,42,VALID,0,
2013-04-30, 03:06:04,VALID,915.864,VALID,0,VALID,97.1299,VALID,0,VALID,20.1334,VALID,42,VALID,0,
2013-04-30, 03:07:04,VALID,915.852,VALID,0,VALID,97.1376,VALID,0,VALID,20.1334,VALID,41,VALID,0,
2013-04-30, 03:08:04,VALID,915.819,VALID,0,VALID,97.1299,VALID,0,VALID,20.1334,VALID,42,VALID,0,
2013-04-30, 03:09:04,VALID,915.803,VALID,0,VALID,97.1223,VALID,0,VALID,20.1529,VALID,42,VALID,0,
2013-04-30, 03:10:04,VALID,915.79,VALID,0,VALID,97.1604,VALID,0,VALID,20.1529,VALID,42,VALID,0,
2013-04-30, 03:11:04,VALID,915.762,VALID,0,VALID,97.1452,VALID,0,VALID,20.1318,VALID,42,VALID,0,
2013-04-30, 03:12:04,VALID,915.786,VALID,0,VALID,97.1376,VALID,0,VALID,20.1334,VALID,42,VALID,0,
2013-04-30, 03:13:04,VALID,915.752,VALID,0,VALID,97.1452,VALID,0,VALID,20.1139,VALID,42,VALID,0,
2013-04-30, 03:14:04,VALID,915.766,VALID,0,VALID,97.1528,VALID,0,VALID,20.1123,VALID,42,VALID,0,
2013-04-30, 03:15:04,VALID,915.782,VALID,0,VALID,97.1376,VALID,0,VALID,20.0928,VALID,42,VALID,0,
2013-04-30, 03:16:04,VALID,915.774,VALID,0,VALID,97.1604,VALID,0,VALID,20.0928,VALID,42,VALID,0,
2013-04-30, 03:17:04,VALID,915.784,VALID,0,VALID,97.1528,VALID,0,VALID,20.0538,VALID,42,VALID,0,
2013-04-30, 03:18:04,VALID,915.78,VALID,0,VALID,97.1757,VALID,0,VALID,20.0749,VALID,42,VALID,0,
2013-04-30, 03:19:04,VALID,915.797,VALID,0,VALID,97.1757,VALID,0,VALID,20.0343,VALID,42,VALID,0,
2013-04-30, 03:20:04,VALID,915.779,VALID,0,VALID,97.1757,VALID,0,VALID,20.0749,VALID,42,VALID,0,
2013-04-30, 03:21:04,VALID,915.783,VALID,0,VALID,97.1757,VALID,0,VALID,20.0749,VALID,42,VALID,0,
2013-04-30, 03:22:04,VALID,915.761,VALID,0,VALID,97.1909,VALID,0,VALID,20.0343,VALID,42,VALID,0,
2013-04-30, 03:23:04,VALID,915.728,VALID,0,VALID,97.1681,VALID,0,VALID,19.9758,VALID,42,VALID,0,
2013-04-30, 03:24:04,VALID,915.736,VALID,0,VALID,97.1757,VALID,0,VALID,19.9968,VALID,42,VALID,0,
2013-04-30, 03:25:04,VALID,915.725,VALID,0,VALID,97.1757,VALID,0,VALID,19.9773,VALID,28,VALID,0,
2013-04-30, 03:26:04,VALID,915.711,VALID,0,VALID,97.2062,VALID,0,VALID,19.9578,VALID,28,VALID,0,
2013-04-30, 03:27:04,VALID,915.72,VALID,0,VALID,97.2062,VALID,0,VALID,19.9578,VALID,28,VALID,0,
2013-04-30, 03:28:04,VALID,915.692,VALID,0,VALID,97.1986,VALID,0,VALID,19.9773,VALID,28,VALID,0,
2013-04-30, 03:29:04,VALID,915.698,VALID,0,VALID,97.2214,VALID,0,VALID,19.9968,VALID,33,VALID,0,
2013-04-30, 03:30:04,VALID,915.666,VALID,0,VALID,97.2214,VALID,0.107441,VALID,19.9953,VALID,33,VALID,0,
2013-04-30, 03:31:04,VALID,915.683,VALID,0,VALID,97.1986,VALID,0.107441,VALID,20.0148,VALID,33,VALID,0,
2013-04-30, 03:32:04,VALID,915.706,VALID,0,VALID,97.2214,VALID,0.107441,VALID,20.0133,VALID,12,VALID,0,
2013-04-30, 03:33:04,VALID,915.688,VALID,0,VALID,97.1986,VALID,0.107441,VALID,20.0343,VALID,23,VALID,0,
2013-04-30, 03:34:04,VALID,915.711,VALID,0,VALID,97.2138,VALID,0.107441,VALID,20.0538,VALID,13,VALID,0,
2013-04-30, 03:35:04,VALID,915.723,VALID,0,VALID,97.1909,VALID,0.107441,VALID,20.0733,VALID,39,VALID,0,
2013-04-30, 03:36:04,VALID,915.723,VALID,0,VALID,97.2138,VALID,0.107441,VALID,20.1123,VALID,42,VALID,0,
2013-04-30, 03:37:04,VALID,915.725,VALID,0,VALID,97.2138,VALID,0.107441,VALID,20.0718,VALID,31,VALID,0,
2013-04-30, 03:38:04,VALID,915.72,VALID,0,VALID,97.2138,VALID,0.107441,VALID,20.1123,VALID,44,VALID,0,
2013-04-30, 03:39:04,VALID,915.708,VALID,0,VALID,97.229,VALID,0.107441,VALID,20.0928,VALID,28,VALID,0,
2013-04-30, 03:40:04,VALID,915.716,VALID,0,VALID,97.2367,VALID,0.107441,VALID,20.1123,VALID,28,VALID,0,
2013-04-30, 03:41:04,VALID,915.698,VALID,0,VALID,97.2214,VALID,0.107441,VALID,20.1123,VALID,5,VALID,0,
2013-04-30, 03:42:04,VALID,915.684,VALID,0,VALID,97.2138,VALID,0.107441,VALID,20.0928,VALID,5,VALID,0,
2013-04-30, 03:43:04,VALID,915.673,VALID,0,VALID,97.2214,VALID,0.107441,VALID,20.0913,VALID,1,VALID,0,
2013-04-30, 03:44:04,VALID,915.652,VALID,0,VALID,97.229,VALID,0,VALID,20.0928,VALID,345,VALID,0,
2013-04-30, 03:45:04,VALID,915.645,VALID,0,VALID,97.2214,VALID,0,VALID,20.0928,VALID,345,VALID,0,
2013-04-30, 03:46:04,VALID,915.624,VALID,0,VALID,97.2443,VALID,0,VALID,20.0944,VALID,345,VALID,0,
2013-04-30, 03:47:04,VALID,915.622,VALID,0,VALID,97.229,VALID,0,VALID,20.1334,VALID,345,VALID,0,
2013-04-30, 03:48:04,VALID,915.636,VALID,0,VALID,97.229,VALID,0,VALID,20.0944,VALID,346,VALID,0,
2013-04-30, 03:49:04,VALID,915.625,VALID,0,VALID,97.229,VALID,0,VALID,20.0944,VALID,346,VALID,0,
2013-04-30, 03:50:04,VALID,915.615,VALID,0,VALID,97.229,VALID,0,VALID,20.1139,VALID,346,VALID,0,
2013-04-30, 03:51:04,VALID,915.602,VALID,0,VALID,97.2519,VALID,0,VALID,20.0944,VALID,346,VALID,0,
2013-04-30, 03:52:04,VALID,915.624,VALID,0,VALID,97.2367,VALID,0,VALID,20.0944,VALID,346,VALID,0,
2013-04-30, 03:53:04,VALID,915.592,VALID,0,VALID,97.2748,VALID,0,VALID,20.0944,VALID,346,VALID,0,
2013-04-30, 03:54:04,VALID,915.601,VALID,0,VALID,97.2443,VALID,0,VALID,20.0928,VALID,346,VALID,0,
2013-04-30, 03:55:04,VALID,915.588,VALID,0,VALID,97.2443,VALID,0,VALID,20.0944,VALID,346,VALID,0,
2013-04-30, 03:56:04,VALID,915.619,VALID,0,VALID,97.2595,VALID,0,VALID,20.0944,VALID,346,VALID,0,
2013-04-30, 03:57:04,VALID,915.653,VALID,0,VALID,97.2595,VALID,0,VALID,20.0733,VALID,346,VALID,0,
2013-04-30, 03:58:04,VALID,915.646,VALID,0,VALID,97.2595,VALID,0,VALID,20.0749,VALID,346,VALID,0,
2013-04-30, 03:59:04,VALID,915.68,VALID,0,VALID,97.2367,VALID,0,VALID,20.0749,VALID,346,VALID,0,
2013-04-30, 04:00:04,VALID,915.697,VALID,0,VALID,97.2519,VALID,0,VALID,20.0944,VALID,346,VALID,0,